Theta_e
288 288 289 289 289 290 290 291 292 293 292 292 293 293 293 294 296 297 299 300 301 303 304 306 309 310 312 311 312 320 319 318
287 288 288 288 288 290 290 291 291 292 293 293 293 293 294 294 296 297 299 299 300 301 302 304 308 310 310 310 310 318 318 319
286 288 288 288 289 289 290 290 290 289 290 290 292 292 293 294 294 295 294 296 297 299 301 304 307 309 309 308 309 316 317 317
287 287 287 288 288 289 289 290 288 288 288 289 290 291 292 291 292 293 294 294 296 296 298 299 302 307 303 300 306 316 318 318
286 286 287 288 287 288 287 288 288 288 287 287 288 289 290 291 291 291 292 292 293 294 295 297 301 297 294 294 294 292 293 293
286 285 287 287 288 288 287 287 287 286 286 287 288 289 289 289 289 289 289 290 291 290 291 293 294 293 290 290 289 289 287 288
286 285 287 286 287 287 286 285 286 286 286 287 287 287 287 287 287 287 287 288 289 288 288 289 290 292 291 290 288 288 287 285
284 286 286 286 286 285 284 285 285 285 285 285 285 284 285 286 286 285 285 286 285 285 285 285 288 291 290 288 287 286 286 286
284 286 285 285 285 283 283 284 283 283 283 283 283 283 284 284 284 284 285 284 284 284 284 284 286 288 288 286 285 284 284 284
286 285 284 284 284 283 283 282 281 280 281 282 282 282 283 283 283 283 283 284 284 284 284 284 284 287 287 285 283 281 281 282
284 283 282 281 282 282 282 280 279 281 281 282 282 282 282 282 282 283 283 282 283 282 283 284 284 286 286 284 283 280 280 281
283 282 281 281 282 281 281 279 280 280 281 282 282 283 283 282 282 283 282 282 282 281 282 283 283 285 285 285 282 281 280 280
282 282 281 279 282 281 280 281 279 279 281 281 282 283 283 282 282 282 282 281 281 281 281 282 283 285 286 285 284 283 280 280
281 279 274 274 276 280 281 279 279 277 279 281 282 283 283 283 282 282 282 281 280 279 279 279 281 282 285 284 283 283 280 281
281 278 275 276 278 280 281 277 276 276 277 282 282 282 282 282 282 282 282 281 280 279 279 279 279 280 280 281 280 280 278 278
280 279 279 277 275 276 276 275 276 276 276 278 282 281 282 283 282 282 283 283 281 281 280 279 278 280 281 279 277 277 276 273
280 279 279 279 278 280 277 276 275 280 277 275 277 280 278 278 282 286 286 286 286 285 283 282 284 284 283 282 281 279 277 272
280 281 279 279 278 278 282 280 281 277 276 276 276 279 279 278 278 278 282 285 286 285 284 284 284 284 283 282 281 280 277 272
278 278 279 278 278 279 279 282 282 280 275 272 272 272 272 272 272 278 275 277 277 284 283 284 284 284 283 281 279 273 273 272
276 277 278 278 280 279 278 277 281 277 271 271 270 269 269 269 269 269 270 268 274 280 282 280 284 284 283 281 270 270 270 270
Wind_Speed
9 9 8 9 8 10 13 17 15 14 10 12 15 14 14 13 15 14 15 15 16 15 17 16 16 20 16 10 10 19 17 16
9 10 8 7 8 11 15 15 14 15 16 16 15 16 15 13 14 16 14 14 16 16 16 17 17 17 15 13 13 19 19 19
8 9 10 12 11 14 13 14 12 14 17 17 15 16 16 15 15 16 18 17 16 18 16 16 16 18 12 14 12 18 24 21
10 10 11 11 12 12 13 13 11 14 15 16 15 15 14 15 16 17 15 15 16 17 15 14 17 17 8 9 15 15 19 20
10 11 12 11 12 14 12 13 14 14 14 15 14 14 15 15 16 16 15 16 15 15 14 15 13 4 4 3 6 12 11 13
11 11 10 12 13 14 15 15 16 14 13 14 15 14 15 15 15 15 15 14 13 12 12 9 6 4 5 8 9 10 17 19
12 13 12 13 14 14 14 14 14 13 13 14 14 14 13 13 14 14 13 12 11 8 9 8 4 12 15 12 10 12 20 22
10 10 11 12 14 14 15 14 13 12 12 13 13 14 13 12 13 12 11 10 8 5 5 4 4 20 21 19 10 14 16 18
6 8 8 9 11 13 13 12 12 11 12 12 13 13 12 11 11 10 8 7 8 9 9 8 9 24 24 23 17 17 17 18
4 5 6 8 11 12 11 11 12 13 13 13 14 14 11 10 9 8 8 10 10 10 10 8 11 26 21 20 20 21 20 18
4 4 6 6 8 10 11 9 13 11 12 13 12 11 11 10 9 8 7 10 9 14 14 13 16 29 22 18 15 22 16 17
2 4 5 5 7 8 9 10 11 8 9 11 11 11 10 8 8 7 9 11 12 15 16 18 14 21 29 28 17 15 14 13
0 3 4 3 4 7 8 10 10 7 9 10 10 8 7 8 8 9 9 11 12 14 13 13 16 26 31 33 30 22 16 14
3 2 4 3 1 4 6 7 10 6 8 9 8 8 9 8 7 7 10 10 10 10 10 10 11 16 33 31 30 27 16 13
4 3 3 3 1 1 5 5 6 7 5 8 8 8 8 6 7 7 7 7 8 8 9 10 10 12 11 11 13 20 16 19
6 5 5 5 3 2 2 4 4 5 4 5 7 7 7 9 7 7 9 7 7 7 7 8 9 9 14 11 7 9 14 12
6 5 6 6 5 3 2 1 3 4 4 2 2 4 4 3 6 15 15 16 17 16 12 9 17 20 22 22 22 21 16 7
9 8 6 7 6 6 5 3 2 3 3 4 4 3 3 3 4 4 9 17 15 17 18 17 17 18 21 19 18 15 12 7
7 7 8 8 9 7 7 5 4 3 3 1 1 2 2 2 3 3 2 4 3 10 12 15 16 19 19 16 11 5 5 5
7 8 8 8 11 9 8 7 8 5 3 4 3 2 2 2 3 3 4 3 3 5 8 7 13 15 16 10 3 4 4 4
Wind_Direction
314 319 314 304 313 339 327 319 312 312 311 307 303 297 292 289 286 282 277 275 277 276 268 272 262 256 259 258 299 209 185 192
314 309 309 322 331 330 324 314 324 319 320 312 305 301 290 286 285 288 290 292 287 282 277 281 260 262 262 267 306 207 186 191
313 327 329 331 335 330 322 318 320 334 317 307 306 304 296 296 302 301 294 293 288 280 278 279 269 274 270 281 280 244 193 189
329 331 333 331 330 323 318 318 331 324 321 315 311 305 317 310 300 298 293 291 287 287 281 281 274 260 262 268 269 226 192 188
329 330 331 336 330 320 323 323 323 319 318 316 316 310 304 303 304 304 300 294 292 287 285 283 252 224 255 34 33 88 80 85
327 328 333 332 325 327 324 325 324 314 313 311 308 307 311 309 305 306 301 296 291 292 283 281 267 166 105 83 93 113 103 86
328 327 335 329 326 323 324 326 317 311 314 313 314 314 313 311 310 309 309 306 301 290 311 310 309 112 105 99 105 98 107 106
324 326 326 329 329 327 326 319 315 322 323 320 317 314 317 320 319 320 318 313 286 353 316 353 65 98 101 98 101 97 96 102
319 322 326 329 326 327 318 326 327 330 327 323 321 320 326 330 329 329 330 338 6 3 18 46 75 96 101 99 89 80 76 81
328 318 319 323 331 324 329 336 335 336 332 330 327 330 333 335 336 350 0 21 27 28 34 51 78 86 91 100 88 80 69 72
320 319 315 323 333 334 344 333 340 337 340 329 331 339 343 342 352 2 24 43 44 47 39 45 66 79 74 77 88 85 81 75
356 306 316 335 334 345 345 336 334 320 346 336 346 343 347 353 5 18 46 50 48 55 51 52 58 74 76 71 74 78 87 79
280 292 302 327 345 353 348 331 315 318 8 349 351 347 351 360 17 31 50 58 58 63 62 56 58 65 69 75 77 81 85 83
190 238 283 277 60 343 335 330 328 342 358 5 5 3 356 2 24 42 41 52 51 55 63 60 55 64 72 78 83 84 84 95
181 222 249 234 147 305 325 328 341 333 4 4 16 18 15 18 18 35 44 55 64 68 65 62 59 70 75 74 78 80 82 82
190 204 220 196 223 197 321 336 352 338 1 9 9 14 21 35 29 44 47 60 78 70 81 90 82 79 90 95 98 93 93 92
198 206 207 194 203 197 155 25 8 14 342 5 60 12 1 23 62 60 64 67 77 86 92 87 96 102 109 112 109 108 105 84
207 209 190 191 195 197 173 155 87 36 350 344 358 37 32 16 42 60 52 64 74 84 90 97 105 114 116 113 112 110 108 106
202 197 198 192 199 191 170 170 205 229 226 229 316 348 39 56 64 78 38 69 37 86 105 110 124 132 127 108 91 81 72 104
206 208 200 204 213 176 174 176 203 204 204 174 156 134 164 123 75 86 82 71 78 100 85 107 137 140 136 111 114 136 120 115